Flag for U.S.A. Weather past 2 weeks in Buffalo, New York, U.S.A.

Now
35 °F

Partly cloudy.


Feels Like: 30 °F
Forecast: 37 / 49 °F
Wind: 6 mph from South

Location: Greater Buffalo International Airport

Current Time: Dec 22, 2014 at 10:10:44 PM

Latest Report: Dec 22, 2014 at 8:54 PM


Visibility: 10 mi

Pressure: 30.05 "Hg

Humidity: 70%

Dew point: 26 °F

Location of BuffaloLocation

Historic Weather in Buffalo — Graph

°F

Buffalo temperature yesterday

Maximum temperature yesterday: 33 °F (at 11:54 AM)
Minimum temperature yesterday: 27 °F (at 6:54 AM)
Average temperature yesterday: 30 °F

Past Weeks' High & Low Weather Summary

 TemperatureHumidityPressure
High46 °F (Dec 16, 3:54 PM)97% (Dec 15, 5:54 PM)30.67 "Hg (Dec 15, 5:54 PM)
Low23 °F (Dec 8, 4:54 AM)26% (Dec 8, 11:54 AM)29.72 "Hg (Dec 16, 2:54 PM)
Average32 °F80%30.09 "Hg
* Reported Dec 7 8:54 PM — Dec 22 8:54 PM, Buffalo, Weather by CustomWeather, © 2014

Note: Actual official high and low records may vary slightly from our data, if they occured in-between our weather recording intervals... More about our weather records

Advertising

Buffalo weather history for previous 24 hours

 ConditionsComfort  
Time TempWeatherWind HumidityBarometerVisibility
8:54 PM
Dec 22
35 °FPartly cloudy.6 mph70%30.05 "Hg10 mi
7:54 PM35 °FMostly cloudy.6 mph70%30.07 "Hg10 mi
6:54 PM36 °FOvercast.8 mph70%30.08 "Hg10 mi
5:54 PM36 °FPassing clouds.6 mph70%30.07 "Hg10 mi
4:54 PM38 °FPassing clouds.7 mph65%30.08 "Hg10 mi
3:54 PM39 °FPartly sunny.9 mph62%30.09 "Hg10 mi
2:54 PM40 °FPartly sunny.5 mph60%30.09 "Hg10 mi
1:54 PM40 °FScattered clouds.No wind58%30.11 "Hg10 mi
12:54 PM38 °FPassing clouds.No wind58%30.12 "Hg10 mi
11:54 AM35 °FPassing clouds.7 mph64%30.15 "Hg10 mi
10:54 AM32 °FPassing clouds.7 mph66%30.18 "Hg10 mi
9:54 AM29 °FPartly sunny.7 mph72%30.21 "Hg10 mi
8:54 AM28 °FPartly sunny.9 mph75%30.22 "Hg10 mi
7:54 AM27 °FPartly sunny.6 mph78%30.22 "Hg10 mi
6:54 AM28 °FPassing clouds.7 mph78%30.22 "Hg10 mi
5:54 AM28 °FPassing clouds.7 mph78%30.22 "Hg10 mi
4:54 AM29 °FPassing clouds.6 mph75%30.23 "Hg10 mi
3:54 AM30 °FPassing clouds.12 mph75%30.25 "Hg10 mi
2:54 AM30 °FPassing clouds.7 mph75%30.26 "Hg10 mi
1:54 AM30 °FPassing clouds.8 mph75%30.26 "Hg10 mi
12:54 AM31 °FPassing clouds.6 mph73%30.28 "Hg10 mi
11:54 PM
Dec 21
31 °FMostly cloudy.7 mph73%30.30 "Hg10 mi
10:54 PM31 °FMostly cloudy.8 mph73%30.30 "Hg10 mi
Weather by CustomWeather, © 2014

See weather overviewHow to use our weather pages